Location: Windsor
(43.2292°N, 89.3015°W)
Time: 04:36:40
(UTC+00:00)

NANOSAT C BR1 - Visible Passes

Search period start: 29 June 2022 00:00
Search period end: 09 July 2022 00:00
Orbit: 583 x 601 km, 98.0° (Epoch: 28 June)

Date Brightness Start Highest point End Pass type
(mag) Time Alt. Az. Time Alt. Az. Time Alt. Az.
29 Jun ? 07:23:20 10° NE 07:26:56 27° E 07:28:32 21° SE visible
29 Jun ? 08:58:51 10° N 09:02:24 27° WNW 09:05:07 14° WSW visible
30 Jun ? 07:31:53 10° NNE 07:35:43 33° E 07:37:21 25° SE visible
30 Jun ? 09:07:48 10° NNW 09:11:04 22° WNW 09:13:56 12° WSW visible
01 Jul ? 07:40:29 10° NNE 07:44:29 41° E 07:46:09 28° SSE visible
01 Jul ? 09:16:48 10° NNW 09:19:44 19° WNW 09:22:39 10° WSW visible
02 Jul ? 07:49:07 10° NNE 07:53:14 52° E 07:54:58 31° SSE visible
02 Jul ? 09:25:52 10° NNW 09:28:22 15° WNW 09:30:50 10° W visible
03 Jul ? 07:57:47 10° NNE 08:01:59 65° ESE 08:03:46 33° S visible
03 Jul ? 09:35:07 10° NW 09:36:59 13° WNW 09:38:51 10° W visible
04 Jul ? 08:06:28 10° NNE 08:10:43 82° ESE 08:12:34 33° S visible
04 Jul ? 09:44:50 10° NW 09:45:36 10° WNW 09:46:22 10° WNW visible
05 Jul ? 08:15:12 10° N 08:19:26 80° WNW 08:21:21 32° SSW visible
06 Jul ? 06:50:44 10° ENE 06:52:11 11° E 06:53:33 10° ESE visible
06 Jul ? 08:23:56 10° N 08:28:08 64° WNW 08:30:08 29° SSW visible
07 Jul ? 06:58:40 10° ENE 07:00:59 14° E 07:02:20 13° ESE visible
07 Jul ? 08:32:43 10° N 08:36:49 51° WNW 08:38:55 26° SW visible
08 Jul ? 07:06:54 10° NE 07:09:47 18° E 07:11:07 16° ESE visible
08 Jul ? 08:41:30 10° N 08:45:30 41° WNW 08:47:42 23° SW visible
